Temperature
7 8 8 7 7 7 7 6 6 7 8 9 9 9 9 9 8 8 7 7 7 6 6 6 6 6 6 5 5 5 5 5 5 4 4 4 4 3 3 3 3 3 2 2
6 7 7 7 7 7 7 7 7 7 7 9 9 10 9 8 8 7 7 7 6 6 6 5 5 5 5 5 5 5 5 5 4 4 4 4 3 3 3 3 3 2 2 2
5 8 7 6 7 7 7 7 7 7 7 8 8 8 8 8 7 7 7 7 6 6 6 5 5 5 5 5 5 5 4 4 4 4 3 3 3 3 3 2 2 2 2 2
5 6 6 8 9 9 8 8 8 8 8 8 8 8 8 8 7 7 6 6 6 6 5 5 5 5 5 4 4 4 4 4 4 4 3 3 3 3 2 2 2 2 1 1
5 5 6 8 8 8 7 7 8 8 8 8 8 7 7 7 7 7 6 6 6 5 5 5 5 5 4 4 4 4 4 4 4 3 3 3 3 2 2 2 2 1 1 1
4 5 5 8 8 8 7 6 8 8 7 7 7 5 6 7 6 6 6 5 5 5 5 5 4 4 4 4 3 3 3 3 3 3 3 2 2 2 2 1 1 1 1 1
3 4 5 8 7 7 6 7 8 8 8 7 6 6 6 6 6 5 5 5 5 4 4 4 4 4 3 3 3 3 3 3 2 2 2 2 2 2 1 1 1 1 0 0
4 4 5 7 6 6 7 8 8 7 7 7 6 6 6 5 5 5 5 4 4 4 4 4 3 3 3 3 3 2 2 2 2 2 2 1 1 1 1 0 0 0 -0 -0
5 6 8 8 8 8 8 7 7 7 6 6 6 5 5 5 5 4 4 4 4 4 3 3 3 3 3 2 2 2 2 2 2 2 1 1 1 1 0 0 -0 -0 -1 -1
5 6 7 8 8 8 7 7 7 6 6 6 5 5 5 4 4 4 4 4 3 3 3 3 3 3 2 2 2 2 2 1 1 1 1 1 0 0 -0 -0 -1 -1 -1 -1
4 5 7 7 7 7 7 6 6 6 5 5 5 5 4 4 4 4 3 3 3 3 3 3 2 2 2 2 1 1 1 1 1 1 1 0 0 -0 -0 -0 -1 -1 -1 -2
4 6 6 6 7 6 6 6 5 5 5 5 4 4 4 4 3 3 3 3 3 2 2 2 2 2 2 2 1 1 1 1 1 0 0 -0 -0 -0 -0 -1 -1 -1 -2 -2
6 6 6 6 6 6 5 5 5 4 4 4 4 4 3 3 3 3 2 2 2 2 2 2 2 2 2 1 1 1 1 1 0 0 -0 -0 -1 -1 -1 -1 -1 -1 -2 -2
6 5 5 5 5 5 4 4 4 4 3 3 3 3 3 3 2 2 2 2 2 2 2 1 1 1 1 1 1 1 1 0 0 -0 -0 -1 -1 -1 -1 -2 -2 -2 -2 -2
4 4 4 4 4 4 4 3 3 3 3 3 2 2 2 2 2 2 2 1 1 1 1 1 1 1 1 1 0 0 0 0 -0 -0 -1 -1 -1 -2 -2 -2 -2 -2 -2 -3
4 3 3 3 3 3 3 3 2 2 2 2 2 2 2 2 2 2 1 1 1 1 1 1 1 1 1 0 0 -0 -0 -0 -1 -1 -1 -1 -1 -2 -2 -3 -3 -3 -3 -3
2 2 2 2 2 2 2 2 2 2 2 2 2 2 2 1 1 1 1 1 1 1 1 1 1 1 0 0 -0 -0 -0 -1 -1 -1 -1 -2 -2 -2 -3 -3 -3 -3 -3 -3
2 2 2 2 1 1 2 2 2 2 2 2 1 1 1 1 1 1 1 1 1 1 1 1 0 0 0 -0 -0 -0 -1 -1 -1 -2 -2 -2 -2 -3 -3 -3 -4 -4 -4 -4
2 2 1 1 1 1 1 1 1 1 1 1 1 1 1 1 1 0 0 0 0 1 1 0 0 0 -0 -0 -1 -1 -1 -1 -2 -2 -2 -2 -3 -3 -3 -4 -4 -4 -4 -4
2 1 1 1 1 1 1 1 1 1 1 1 1 1 1 1 0 0 0 0 0 0 0 0 -0 -0 -0 -1 -1 -1 -1 -2 -2 -2 -2 -3 -3 -3 -4 -4 -4 -4 -5 -5
1 1 1 1 1 1 1 1 1 1 1 1 1 1 0 0 0 -0 -0 -0 0 -0 -0 -0 -0 -0 -1 -1 -1 -1 -2 -2 -2 -2 -3 -3 -3 -4 -4 -4 -4 -5 -5 -5
1 1 1 1 1 1 1 1 1 1 1 1 0 0 -0 -0 -0 -1 -1 -0 -0 -1 -1 -1 -1 -1 -1 -1 -2 -2 -2 -2 -2 -3 -3 -3 -4 -4 -4 -4 -5 -5 -5 -5
1 1 1 1 1 1 1 1 1 1 0 0 0 -0 -0 -0 -1 -1 -1 -1 -1 -1 -1 -1 -1 -1 -2 -2 -2 -2 -2 -3 -3 -3 -3 -3 -4 -4 -4 -4 -5 -5 -5 -5
1 1 1 1 1 1 1 1 1 1 0 0 -0 -0 -1 -1 -1 -1 -1 -1 -1 -1 -1 -1 -1 -2 -2 -2 -2 -2 -3 -3 -3 -3 -3 -4 -4 -4 -4 -5 -5 -5 -5 -5
0 0 0 0 0 0 0 0 0 0 0 -0 -0 -0 -1 -1 -1 -1 -1 -1 -1 -2 -2 -2 -2 -2 -2 -2 -2 -3 -3 -3 -3 -3 -4 -4 -4 -4 -5 -5 -5 -5 -5 -5
-0 -0 -0 -0 -0 0 -0 -0 -0 -0 -0 -1 -0 -1 -1 -1 -1 -2 -2 -2 -2 -2 -2 -2 -2 -2 -2 -3 -3 -3 -3 -3 -4 -4 -4 -4 -4 -5 -5 -5 -5 -5 -6 -6
-1 -1 -0 -0 -0 -0 -0 -1 -1 -1 -1 -1 -1 -1 -1 -2 -2 -2 -2 -2 -2 -2 -2 -2 -3 -3 -3 -3 -3 -3 -3 -4 -4 -4 -4 -4 -4 -5 -5 -5 -5 -6 -6 -6
Wind_Speed
9 10 9 10 10 10 11 10 8 8 8 8 5 4 3 2 2 2 3 3 3 3 3 3 3 4 4 4 4 4 4 4 4 3 3 2 2 2 2 2 3 3 3 4
8 9 9 12 13 13 12 12 13 13 14 8 4 3 2 3 3 3 3 3 3 3 3 3 4 4 4 4 4 4 4 4 3 3 2 2 3 2 2 3 3 3 3 3
5 5 7 9 10 12 8 8 9 12 9 4 4 4 4 4 4 4 4 3 3 3 3 4 4 3 4 4 4 4 5 4 4 3 3 3 3 3 3 3 3 3 3 3
5 6 7 5 1 3 6 8 8 7 6 4 4 4 4 3 3 3 3 4 4 3 3 3 3 3 3 3 4 4 5 5 4 4 4 4 3 4 4 3 3 3 4 3
3 5 8 6 2 2 3 5 6 7 5 3 3 4 4 3 1 2 3 3 3 3 3 3 3 3 3 3 4 4 5 5 5 5 5 4 4 4 4 3 4 3 3 3
4 5 6 3 2 2 1 4 2 1 3 2 1 3 4 1 2 3 3 2 3 3 3 3 4 3 3 4 4 5 5 5 5 5 5 5 5 4 3 3 4 3 3 3
7 7 8 3 3 3 2 3 1 1 1 2 3 5 4 3 3 3 3 3 3 3 3 4 3 3 4 4 5 5 4 4 4 4 5 5 4 3 3 3 3 3 4 4
6 6 8 3 4 4 4 2 2 2 2 3 4 5 4 4 4 4 4 4 4 3 4 4 3 4 4 5 5 3 3 4 4 4 4 3 3 3 3 3 3 4 4 4
7 8 5 4 5 5 3 4 4 3 3 3 5 5 5 5 5 5 5 4 3 3 4 4 3 4 5 5 4 3 4 4 4 4 4 3 4 4 3 3 3 3 3 4
7 9 8 7 7 6 5 5 4 4 5 5 6 6 6 5 5 5 5 4 4 4 4 5 4 4 5 4 4 4 4 4 4 4 4 4 3 4 4 4 4 4 4 4
10 10 10 9 7 5 5 4 4 5 6 6 6 6 6 6 5 5 5 4 4 4 5 6 5 5 4 3 3 4 4 4 4 4 4 4 4 4 5 5 5 5 5 4
11 8 6 6 4 4 5 6 6 6 6 6 6 7 6 6 5 5 5 4 4 5 5 6 5 5 4 4 4 4 4 4 4 4 4 4 4 4 6 6 8 8 7 6
12 9 8 8 7 7 7 6 6 6 7 7 6 6 6 6 5 5 5 5 5 6 6 5 5 5 5 4 4 5 5 5 4 4 4 4 4 4 5 5 7 8 9 9
8 8 10 9 8 6 6 6 5 6 7 7 6 5 5 5 6 6 6 6 5 5 5 5 5 6 5 4 4 5 5 6 5 4 4 5 5 4 4 4 4 5 7 10
9 8 8 7 7 7 6 5 6 7 6 6 5 5 5 6 7 7 6 5 5 6 6 5 6 6 4 4 5 6 5 5 4 4 4 4 4 4 4 5 5 4 4 5
6 6 7 7 8 8 7 7 7 7 6 5 5 5 5 6 6 6 5 4 5 6 6 6 7 6 4 4 5 5 5 7 5 4 4 4 4 4 4 4 5 5 5 5
6 7 7 8 8 8 7 7 7 7 6 6 6 5 5 5 6 6 6 5 5 6 6 6 7 5 4 5 5 4 4 5 6 4 4 4 4 5 5 5 5 5 5 6
7 8 8 8 8 8 7 7 6 6 6 6 5 5 5 6 7 7 6 5 5 6 6 6 5 4 4 4 4 4 4 4 4 4 4 4 4 4 5 5 6 6 5 6
6 6 6 6 6 6 6 6 6 5 5 5 5 6 6 6 6 6 5 5 5 6 6 5 5 4 4 5 4 4 4 4 4 4 4 6 6 5 5 5 5 5 5 5
6 5 5 6 5 5 6 6 5 5 5 4 4 5 6 6 5 5 5 5 5 5 4 4 4 3 4 4 5 4 4 5 5 4 4 5 5 5 5 5 5 5 5 5
6 5 5 5 5 5 5 5 5 5 5 4 5 6 6 6 5 4 4 6 6 4 4 5 3 3 3 4 5 4 4 4 5 5 5 5 5 5 5 5 5 5 5 5
5 5 5 5 5 5 5 4 4 5 5 5 5 5 5 6 5 5 6 6 5 5 4 3 3 4 5 5 3 4 4 5 5 4 4 5 5 5 5 5 5 5 5 5
5 5 5 5 5 6 6 5 5 5 5 6 6 6 6 6 5 5 6 5 4 5 4 4 5 7 7 4 3 4 4 5 5 5 5 5 5 5 5 5 5 5 5 5
6 6 6 6 5 5 7 7 6 5 6 6 6 6 6 5 5 5 5 6 6 7 5 6 7 8 6 3 3 4 4 4 5 4 4 4 4 4 5 5 5 4 4 5
7 7 7 6 6 7 7 7 6 6 5 5 6 6 5 5 5 5 4 5 6 6 5 6 8 7 5 3 4 4 4 5 5 4 4 4 4 4 4 4 4 4 4 4
8 7 7 8 7 7 6 5 5 5 5 6 6 5 4 4 5 5 4 5 6 6 5 4 4 5 4 4 4 4 4 5 5 5 5 4 5 4 4 4 5 4 4 4
8 7 6 6 7 6 6 6 6 7 6 6 7 5 4 4 4 4 5 4 4 5 4 4 3 3 4 4 4 4 4 4 4 4 4 4 4 4 4 5 4 4 3 4
Wind_Direction
275 277 271 262 250 229 225 227 238 262 271 276 287 290 283 290 274 254 254 252 251 251 249 249 242 229 218 211 198 195 202 211 220 224 225 230 244 257 268 274 283 283 287 290
280 259 255 260 249 238 236 237 246 265 275 276 280 293 302 300 288 273 257 254 258 265 260 257 250 234 220 214 204 196 205 214 214 215 220 227 239 248 259 264 270 275 278 289
280 298 302 269 241 219 219 218 219 241 253 291 301 300 297 283 273 271 266 265 260 264 268 262 254 238 221 219 206 201 207 212 210 211 221 230 238 242 251 256 260 266 274 281
287 307 259 246 80 173 222 239 230 247 269 276 280 288 291 274 264 278 276 272 269 258 261 265 255 247 229 211 207 209 213 214 211 210 220 226 230 238 243 248 254 259 266 273
265 276 277 271 195 158 218 267 239 239 259 280 309 325 294 262 259 278 281 273 262 253 254 257 251 241 227 220 215 216 222 221 216 211 216 221 230 239 242 245 253 256 263 268
250 259 261 274 123 84 95 278 283 225 262 286 332 303 279 344 354 314 295 280 274 268 265 255 250 232 224 226 222 228 230 227 220 214 215 222 228 234 240 246 254 262 268 266
238 251 266 271 140 124 185 255 341 351 269 266 253 250 264 305 305 294 284 279 271 265 260 254 243 220 230 235 236 239 236 232 223 219 221 224 224 227 238 245 252 260 267 269
207 228 252 189 145 200 241 314 335 316 286 275 273 279 281 280 281 284 280 273 265 261 264 261 240 222 235 242 243 238 234 233 228 222 225 226 222 228 232 235 247 258 268 278
210 228 258 188 221 243 277 291 291 288 284 277 276 275 277 273 273 274 270 267 261 255 265 264 245 225 237 246 238 230 230 231 229 224 222 219 219 224 229 231 240 256 261 272
268 264 271 265 263 266 266 263 275 279 276 268 266 268 271 271 270 271 272 264 257 253 259 264 254 239 235 238 228 220 231 234 226 223 228 226 225 223 224 226 233 245 254 263
265 273 282 269 258 263 272 278 285 281 271 263 265 268 265 267 266 265 268 262 248 247 254 259 259 253 241 231 220 225 234 235 230 227 229 231 231 229 232 230 229 238 243 246
255 259 266 281 293 292 282 273 268 272 276 271 259 263 267 267 266 263 264 262 253 251 254 258 256 258 249 231 218 220 233 235 230 228 230 231 237 254 252 251 255 254 255 259
260 279 284 289 291 286 276 272 272 270 269 274 269 260 263 268 268 266 267 265 257 253 254 255 254 255 249 232 223 219 227 233 230 228 229 231 234 241 263 269 260 259 261 264
268 275 278 277 279 284 283 279 274 270 268 266 267 266 264 269 272 271 267 263 261 262 257 252 252 255 250 232 225 226 228 233 230 228 229 231 232 237 243 255 270 272 265 262
265 260 266 280 284 283 280 275 272 271 270 270 266 263 262 265 269 271 270 267 265 263 261 255 254 258 248 229 225 228 228 231 229 228 226 229 231 236 242 248 259 270 277 272
280 279 274 271 272 271 270 267 267 268 269 269 270 266 265 265 268 273 271 261 256 260 260 255 256 258 243 226 226 228 230 236 233 229 229 232 233 236 244 248 255 260 262 267
273 274 271 272 271 269 266 264 263 266 266 265 266 269 271 272 274 275 274 265 256 258 257 255 260 259 242 227 221 226 226 232 233 235 232 234 236 237 242 248 253 259 262 263
255 261 264 265 269 272 273 268 264 263 264 263 266 268 265 263 266 272 276 278 276 274 267 258 256 251 238 228 224 227 226 226 226 230 234 237 242 239 241 246 251 258 268 269
276 272 273 272 270 269 271 272 268 263 265 263 261 262 263 264 267 272 275 274 272 274 278 265 254 238 234 232 226 225 225 227 231 234 236 245 248 244 245 249 254 256 261 264
286 281 280 280 273 265 267 269 268 266 261 255 259 267 271 270 269 270 270 267 260 257 265 269 261 246 238 235 227 222 225 229 233 237 237 236 240 246 248 252 255 258 260 261
289 285 281 279 277 272 262 258 256 259 263 254 250 259 267 274 272 267 266 275 276 263 261 259 252 249 242 239 228 223 225 231 235 236 238 240 244 248 251 252 256 259 259 261
288 285 281 278 278 281 276 262 253 256 264 265 261 259 266 274 274 269 257 256 270 272 269 255 249 247 242 240 228 227 230 233 236 236 237 240 244 248 250 252 256 258 257 258
275 272 272 272 272 278 283 274 260 256 256 259 260 259 260 262 260 261 274 270 264 267 266 257 253 251 248 241 232 231 233 235 237 238 239 240 242 244 248 250 253 253 255 256
275 274 272 271 271 273 276 274 265 257 253 256 255 251 249 260 266 252 254 268 270 270 267 263 260 257 252 243 234 235 238 240 240 240 242 243 243 243 245 248 250 251 251 252
269 269 268 266 264 263 263 265 266 262 259 261 259 252 241 234 246 264 266 264 265 269 271 268 263 259 251 241 237 240 243 243 243 239 236 240 242 243 246 245 246 249 250 250
261 260 258 253 252 255 255 253 256 259 258 264 266 257 247 242 243 253 258 258 259 262 263 262 256 251 243 239 240 243 245 251 254 247 239 237 239 240 244 245 246 247 248 248
257 257 258 261 256 245 241 241 246 250 248 250 262 259 247 245 246 250 252 254 257 257 256 252 244 240 241 243 245 246 246 244 242 241 238 237 238 241 244 243 243 245 245 246
Height
1503 1499 1498 1497 1496 1497 1499 1498 1498 1487 1482 1477 1477 1476 1476 1475 1475 1475 1474 1474 1473 1473 1472 1471 1470 1470 1469 1469 1468 1468 1467 1467 1467 1466 1465 1464 1463 1462 1461 1460 1459 1457 1456 1455
1502 1495 1493 1492 1489 1489 1490 1489 1488 1485 1481 1474 1474 1474 1473 1473 1473 1472 1471 1471 1470 1470 1469 1468 1467 1466 1466 1465 1465 1464 1464 1463 1463 1462 1462 1461 1460 1459 1458 1457 1456 1454 1453 1451
1503 1492 1492 1490 1478 1480 1481 1478 1480 1481 1476 1472 1472 1472 1471 1471 1470 1469 1469 1468 1467 1466 1466 1465 1464 1463 1462 1461 1461 1460 1460 1460 1459 1459 1458 1457 1456 1455 1454 1453 1452 1451 1449 1448
1505 1499 1497 1477 1469 1469 1472 1472 1472 1472 1470 1470 1470 1470 1469 1468 1467 1466 1466 1465 1464 1463 1462 1461 1460 1459 1459 1458 1457 1456 1456 1456 1455 1455 1454 1453 1453 1452 1451 1450 1449 1447 1446 1445
1506 1501 1487 1472 1469 1469 1472 1471 1467 1467 1467 1468 1467 1467 1466 1466 1465 1464 1463 1462 1461 1460 1458 1457 1456 1456 1455 1454 1453 1452 1452 1451 1451 1451 1450 1449 1449 1448 1447 1446 1445 1444 1442 1441
1504 1501 1492 1472 1470 1468 1471 1473 1464 1464 1465 1465 1466 1468 1465 1463 1462 1461 1460 1458 1457 1456 1454 1453 1452 1452 1450 1449 1449 1448 1448 1447 1447 1446 1446 1445 1445 1444 1443 1442 1441 1440 1439 1437
1504 1498 1483 1470 1469 1470 1476 1470 1464 1463 1463 1463 1464 1464 1462 1460 1458 1457 1456 1455 1453 1452 1450 1449 1448 1447 1446 1445 1444 1444 1443 1443 1442 1442 1442 1441 1441 1440 1439 1438 1437 1436 1435 1433
1496 1495 1484 1467 1468 1470 1467 1463 1462 1461 1461 1461 1460 1459 1457 1456 1455 1453 1452 1451 1449 1447 1446 1445 1444 1443 1441 1441 1440 1440 1439 1438 1438 1437 1437 1437 1436 1436 1435 1434 1433 1432 1430 1429
1481 1476 1466 1464 1463 1463 1462 1461 1460 1459 1458 1458 1456 1455 1453 1452 1451 1449 1448 1447 1445 1443 1442 1440 1440 1439 1437 1437 1436 1435 1434 1433 1433 1433 1432 1432 1432 1431 1431 1430 1429 1428 1426 1425
1472 1464 1461 1461 1460 1459 1459 1457 1456 1456 1455 1453 1452 1450 1449 1448 1446 1445 1443 1442 1441 1439 1437 1435 1435 1434 1433 1432 1432 1431 1430 1429 1428 1428 1428 1427 1427 1427 1426 1425 1424 1423 1422 1420
1468 1461 1458 1456 1456 1455 1454 1453 1452 1451 1450 1449 1447 1446 1444 1443 1441 1440 1438 1437 1436 1434 1432 1431 1430 1429 1429 1428 1427 1426 1425 1424 1424 1423 1423 1422 1422 1422 1421 1421 1421 1419 1418 1417
1461 1456 1455 1452 1452 1451 1450 1448 1448 1446 1445 1444 1443 1441 1439 1437 1436 1435 1433 1432 1430 1429 1427 1426 1425 1424 1424 1423 1422 1421 1420 1420 1419 1419 1418 1418 1417 1417 1417 1417 1416 1415 1414 1413
1452 1451 1450 1448 1447 1447 1445 1444 1443 1442 1440 1438 1437 1436 1434 1432 1431 1429 1428 1426 1425 1423 1422 1421 1420 1419 1419 1418 1418 1417 1416 1415 1415 1414 1414 1413 1413 1412 1411 1411 1411 1410 1409 1408
1447 1446 1444 1443 1442 1441 1440 1439 1437 1436 1435 1433 1432 1430 1429 1427 1425 1424 1422 1421 1420 1418 1417 1416 1415 1414 1414 1413 1413 1412 1411 1411 1410 1409 1409 1409 1408 1407 1407 1406 1405 1403 1404 1403
1441 1441 1439 1437 1436 1435 1434 1433 1431 1430 1429 1427 1426 1425 1424 1422 1420 1418 1417 1416 1414 1413 1412 1411 1410 1409 1409 1408 1408 1407 1406 1406 1405 1405 1404 1404 1403 1403 1402 1401 1400 1398 1398 1397
1435 1434 1433 1431 1430 1429 1428 1427 1426 1424 1423 1422 1421 1420 1419 1417 1415 1414 1412 1411 1409 1408 1407 1406 1405 1404 1404 1403 1403 1402 1401 1401 1401 1400 1399 1399 1398 1397 1397 1396 1395 1393 1392 1392
1430 1427 1427 1425 1424 1423 1423 1422 1421 1419 1418 1417 1416 1415 1413 1412 1410 1408 1407 1406 1405 1403 1402 1401 1400 1400 1399 1398 1398 1397 1396 1396 1396 1395 1394 1394 1393 1392 1391 1391 1389 1388 1387 1387
1424 1423 1422 1421 1419 1418 1417 1416 1415 1414 1413 1412 1411 1410 1408 1407 1405 1404 1402 1401 1400 1399 1398 1397 1396 1395 1394 1394 1393 1392 1392 1391 1391 1390 1389 1389 1388 1387 1386 1385 1384 1383 1382 1381
1419 1418 1417 1416 1415 1414 1413 1411 1410 1410 1409 1408 1406 1405 1404 1402 1401 1400 1398 1397 1395 1394 1393 1392 1391 1391 1390 1389 1388 1388 1387 1386 1386 1385 1384 1384 1383 1382 1381 1380 1379 1378 1377 1376
1415 1414 1413 1412 1411 1410 1409 1407 1406 1405 1404 1403 1402 1401 1399 1398 1397 1395 1394 1393 1391 1390 1389 1388 1387 1386 1385 1384 1384 1383 1382 1381 1381 1380 1379 1378 1377 1377 1376 1375 1374 1373 1372 1371
1412 1410 1409 1408 1407 1406 1405 1404 1403 1402 1400 1400 1398 1396 1395 1394 1392 1391 1389 1388 1387 1386 1385 1384 1383 1382 1381 1380 1379 1378 1378 1377 1376 1375 1374 1373 1373 1372 1371 1370 1369 1368 1367 1366
1409 1407 1406 1405 1404 1403 1402 1401 1399 1398 1397 1396 1394 1393 1391 1389 1388 1386 1385 1384 1383 1382 1380 1379 1378 1377 1377 1376 1375 1374 1373 1372 1371 1370 1369 1369 1368 1367 1366 1365 1364 1363 1362 1361
1406 1404 1403 1402 1401 1399 1398 1397 1396 1394 1393 1392 1390 1388 1387 1385 1383 1382 1380 1379 1378 1377 1376 1375 1374 1373 1372 1371 1370 1369 1368 1367 1367 1366 1365 1364 1363 1362 1361 1360 1359 1359 1358 1357
1402 1401 1399 1398 1397 1395 1393 1392 1391 1390 1388 1387 1386 1384 1382 1380 1379 1378 1376 1375 1374 1372 1371 1370 1369 1368 1367 1366 1365 1364 1364 1363 1362 1361 1361 1360 1359 1358 1357 1356 1355 1354 1354 1353
1398 1396 1395 1393 1392 1390 1388 1387 1386 1384 1383 1381 1380 1379 1378 1376 1375 1373 1372 1370 1369 1368 1366 1365 1365 1364 1363 1362 1361 1360 1359 1358 1358 1357 1356 1355 1354 1354 1353 1352 1351 1350 1349 1349
1392 1390 1389 1387 1386 1384 1383 1382 1380 1379 1377 1376 1374 1373 1372 1371 1369 1368 1366 1365 1364 1363 1362 1361 1360 1359 1358 1357 1356 1355 1355 1354 1353 1352 1352 1351 1350 1349 1348 1348 1347 1346 1346 1345
1385 1383 1382 1380 1378 1377 1376 1375 1374 1373 1371 1370 1368 1367 1366 1365 1364 1362 1361 1360 1359 1357 1356 1356 1355 1354 1353 1352 1352 1351 1350 1350 1349 1348 1348 1347 1346 1345 1344 1344 1343 1342 1342 1341